Regional Weather Roundup
Issued by NWS

Home | Current Version | Previous Version | Graphics & Text | Print | Product List | Glossary On
Versions: 1 2 3 4 5 6 7 8 9 10 11 12 13 14 15 16 17 18 19 20 21 22 23 24 25 26 27 28 29 30 31 32 33 34 35 36 37 38 39 40 41 42 43 44 45 46 47 48 49 50
000
ASUS43 KDMX 020107
RWRIA

WEATHER ROUNDUP FOR IOWA
NATIONAL WEATHER SERVICE DES MOINES IA
800 PM CDT TUE SEP 01 2015

NOTE: "FAIR" INDICATES FEW OR NO CLOUDS BELOW 12,000 FEET WITH NO
SIGNIFICANT WEATHER AND/OR OBSTRUCTIONS TO VISIBILITY.

* - THESE STATIONS ARE NOT NWS STATIONS...THUS NOT UNDER NWS
QUALITY CONTROL.  THEY ALSO DO NOT REPORT WEATHER SUCH
AS PRECIPITATION OR FOG.

IAZ001>003-012>014-020>022-031>034-043>046-020200-
   NORTHWEST IOWA

CITY           SKY/WX    TMP DP  RH WIND       PRES   REMARKS
CARROLL *      CLEAR     77  75  94 S6        29.93S
CHEROKEE *     MOCLDY    77  73  88 S7        29.89S
DENISON *      CLEAR     79  73  83 S12       29.90S HX  82
LE MARS *      CLOUDY    79  75  89 SE7       29.87F HX  82
ORANGE CITY *  MOCLDY    79  75  89 SE6       29.89S HX  82
SHELDON *      CLOUDY    77  73  88 SE7       29.88S
SIOUX CITY     MOCLDY    81  71  71 SE9       29.86S HX  85
SPENCER        PTCLDY    77  71  82 SE8       29.91S
STORM LAKE *   CLEAR     77  73  88 S8        29.92S
$$

IAZ055>058-069>071-079>083-090>094-020200-
   SOUTHWEST IOWA

CITY           SKY/WX    TMP DP  RH WIND       PRES   REMARKS
ATLANTIC *     CLEAR     81  72  74 S8G15     29.93S HX  84
AUDUBON *      CLEAR     79  72  78 S3        29.95S HX  82
CLARINDA *     CLEAR     81  70  69 S7        29.96S HX  84
COUNCIL BLFS * CLEAR     81  70  69 S15       29.91S HX  84
CRESTON *      CLEAR     77  70  78 S7        29.99R
LAMONI         PTCLDY    80  69  69 S7        29.98S HX  83
RED OAK *      CLOUDY    81  72  74 S9        29.93S HX  84
SHENANDOAH *   CLEAR     81  70  69 S10       29.93S HX  84
$$

IAZ047>049-059>061-072>074-084-020200-
   CENTRAL IOWA

CITY           SKY/WX    TMP DP  RH WIND       PRES   REMARKS
AMES           PTCLDY    75  71  87 S5        29.95S
ANKENY *       CLEAR     79  73  83 S6        29.95S HX  82
CHARITON *     CLEAR     79  70  73 S6        29.98S HX  81
DES MOINES     MOCLDY    82  70  66 S7        29.95S HX  86
GRINNELL*      MOCLDY    77  72  83 S6        29.98S
KNOXVILLE *    CLEAR     79  70  73 S6        29.96S HX  81
MARSHALLTOWN   PTCLDY    78  72  81 S7        29.96R HX  80
PELLA *        MOCLDY    79  73  83 S5        29.98S HX  82
PERRY *          N/A     79  73  83 S5        29.94S HX  82
$$

IAZ004>006-015-016-023>025-035-036-020200-
   NORTH CENTRAL IOWA

CITY           SKY/WX    TMP DP  RH WIND       PRES   REMARKS
ALGONA *       CLEAR     77  73  88 S9        29.93S
CLARION *      CLEAR     75  72  88 S7        29.94F
ESTHERVILLE    CLEAR     75  72  90 S6        29.92R
FORT DODGE *   PTCLDY    79  72  78 S7        29.94S HX  82
MASON CITY     MOCLDY    75  73  93 S6        29.96S
FOREST CITY *  CLEAR     73  72  94 SE5       29.94S
IOWA FALLS *     N/A     77  73  88 S6        29.97S
$$

IAZ007>011-017>019-026>030-037>042-050>054-066-020200-
   NORTHEAST IOWA

CITY           SKY/WX    TMP DP  RH WIND       PRES   REMARKS
CEDAR RAPIDS   PTCLDY    77  74  90 S6        29.97S
CHARLES CITY * CLEAR     77  77 100 S6        29.96S
CLINTON *      CLEAR     75  72  88 S6        30.01R
DECORAH *      CLEAR     79  75  89 S5        29.96R HX  82
DUBUQUE        PTCLDY    77  72  84 S8        29.99R
MONTICELLO *   CLEAR     77  73  88 S5        29.97S
OELWEIN *      CLEAR     77  75  94 S6        29.97S
WATERLOO       PTCLDY    79  73  82 S6        29.94S HX  82
$$

IAZ064-065-067-068-078-020200-
   EAST CENTRAL IOWA

CITY           SKY/WX    TMP DP  RH WIND       PRES   REMARKS
DAVENPORT      CLEAR     79  71  76 S7        29.99S HX  82
IOWA CITY      PTCLDY    80  72  76 CALM      29.98S HX  84
MT. PLEASANT * CLEAR     79  66  65 S3        30.00R HX  81
MUSCATINE *    CLEAR     82  72  69 CALM      29.98S HX  87
QUAD CITIES    CLEAR     81  71  71 S6        29.98S HX  85
$$

IAZ062-063-075>077-085>089-095>099-020200-
   SOUTHEAST IOWA

CITY           SKY/WX    TMP DP  RH WIND       PRES   REMARKS
BURLINGTON     CLEAR     80  70  71 S3        30.00R HX  83
FAIRFIELD *    CLEAR     79  68  69 S6        29.99S HX  81
FORT MADISON * CLEAR     79  72  78 S3        30.01S HX  82
KEOKUK *       CLEAR     82  70  65 S6        29.99R HX  86
OSKALOOSA *      N/A     77  70  78 S3        29.99R
CENTERVILLE *  CLEAR     75  72  88 S7        30.01S
OTTUMWA        MOCLDY    76  72  87 S7        29.97R
WASHINGTON *     N/A    N/A N/A N/A MISG        N/A
$$

ABBREVIATIONS USED IN REMARKS
   TC - TEMPERATURES IN CELSIUS
  WCI - WIND CHILL INDEX
   HX - HEAT INDEX
  VSB - VISIBILITY
$$



USA.gov is the U.S. government's official web portal to all federal, state and local government web resources and services.